Thomson, GA

3:32 PM EDT on July 26, 2017 (GMT -0400)
Thomson-McDuffie County

Weather History for KHQU - March, 2013

Change the Weather History Date:

Friday, March 1, 2013

  Actual Average (KDNL) Record (KDNL)
Temperature  
Mean Temperature 40 °F -  
Max Temperature 54 °F 61 °F 84 °F (1997)
Min Temperature 28 °F 42 °F 27 °F (2002)
Degree Days  
Heating Degree Days 24    
Moisture  
Dew Point 31 °F    
Average Humidity 71    
Maximum Humidity 99    
Minimum Humidity 46    
Precipitation  
Precipitation 0.00 in - - ()
Sea Level Pressure  
Sea Level Pressure 29.98 in    
Wind  
Wind Speed 5 mph (West)    
Max Wind Speed 17 mph    
Max Gust Speed 23 mph    
Visibility 10 miles    
Events      
Averages and records for this station are not official NWS values.
T = Trace of Precipitation, MM = Missing Value Source: NWS Daily Summary

Daily Weather History Graph

Daily Weather History Graph

Search for Another Location

Airport or City:

Trip Planner

Search our weather history database for the weather conditions in past years. The results will help you decide how hot, cold, wet, or windy it might be!

Date:

Astronomy

Mar. 01, 2013 Rise Set
Actual Time 6:58 AM EST 6:27 PM EST
Civil Twilight 6:33 AM EST 6:51 PM EST
Nautical Twilight 6:04 AM EST 7:20 PM EST
Astronomical Twilight 5:35 AM EST 7:49 PM EST
Moon 10:42 PM EST (3/1) 8:58 AM EST (3/1)
Length of Visible Light 12h 18m
Length of Day
11h 28m
Waning Gibbous, 83% of the Moon is Illuminated
Mar 1
Waning Gibbous
Mar 4
Last Quarter
Mar 11
New
Mar 19
First Quarter
Mar 27
Full

Hourly Weather History & Observations

Time (EST) Temp. Windchill Dew Point Humidity Pressure Visibility Wind Dir Wind Speed Gust Speed Precip Events Conditions
12:15 AM 36.5 °F 31.0 °F 29.5 °F 76% 29.99 in 10.0 mi WNW 6.9 mph - N/A   Clear
12:35 AM 36.1 °F 31.4 °F 29.5 °F 77% 29.99 in 10.0 mi West 5.8 mph - N/A   Clear
12:55 AM 36.0 °F 33.3 °F 29.7 °F 78% 29.99 in 10.0 mi West 3.5 mph - N/A   Clear
1:15 AM 35.4 °F 32.6 °F 29.8 °F 80% 29.99 in 10.0 mi West 3.5 mph - N/A   Clear
1:35 AM 35.1 °F 31.0 °F 29.7 °F 81% 29.99 in 10.0 mi West 4.6 mph - N/A   Clear
2:15 AM 33.1 °F 30.0 °F 29.5 °F 87% 29.98 in 10.0 mi WSW 3.5 mph - N/A   Clear
2:35 AM 32.9 °F - 29.3 °F 87% 29.99 in 10.0 mi Calm Calm - N/A   Clear
2:55 AM 32.7 °F - 29.3 °F 87% 29.99 in 10.0 mi Calm Calm - N/A   Clear
3:15 AM 32.0 °F 28.7 °F 29.1 °F 89% 29.99 in 10.0 mi WSW 3.5 mph - N/A   Clear
4:15 AM 32.2 °F 28.9 °F 29.3 °F 89% 29.99 in 10.0 mi WSW 3.5 mph - N/A   Clear
4:35 AM 32.4 °F 29.1 °F 29.1 °F 88% 29.99 in 10.0 mi West 3.5 mph - N/A   Clear
4:55 AM 32.2 °F - 28.9 °F 88% 29.99 in 10.0 mi Calm Calm - N/A   Clear
5:15 AM 32.0 °F - 28.8 °F 88% 30.00 in 10.0 mi Calm Calm - N/A   Clear
5:35 AM 31.6 °F - 28.6 °F 88% 30.00 in 10.0 mi Calm Calm - N/A   Clear
6:15 AM 28.9 °F - 28.0 °F 96% 30.00 in 10.0 mi Calm Calm - N/A   Clear
6:35 AM 29.7 °F - 28.2 °F 94% 30.00 in 10.0 mi Calm Calm - N/A   Clear
7:15 AM 28.4 °F - 28.0 °F 99% 30.00 in 10.0 mi Calm Calm - N/A   Clear
7:35 AM 29.3 °F - 28.8 °F 98% 30.00 in 10.0 mi Calm Calm - N/A   Clear
7:55 AM 32.0 °F 28.7 °F 29.5 °F 90% 30.00 in 10.0 mi WNW 3.5 mph - N/A   Clear
8:15 AM 33.6 °F 29.4 °F 29.8 °F 86% 30.01 in 10.0 mi WNW 4.6 mph - N/A   Clear
8:35 AM 35.8 °F 29.4 °F 30.7 °F 82% 30.03 in 10.0 mi West 8.1 mph - N/A   Clear
8:55 AM 37.9 °F 32.7 °F 30.9 °F 76% 30.03 in 10.0 mi West 6.9 mph - N/A   Clear
9:15 AM 39.4 °F 34.5 °F 31.1 °F 72% 30.03 in 10.0 mi NW 6.9 mph - N/A   Clear
9:35 AM 40.1 °F 36.1 °F 30.9 °F 70% 30.02 in 10.0 mi NNW 5.8 mph - N/A   Clear
9:55 AM 41.9 °F 38.2 °F 31.3 °F 66% 30.01 in 10.0 mi WNW 5.8 mph - N/A   Clear
10:15 AM 42.8 °F 39.3 °F 31.1 °F 63% 30.01 in 10.0 mi WNW 5.8 mph - N/A   Clear
10:35 AM 44.8 °F 41.6 °F 31.6 °F 60% 30.01 in 10.0 mi West 5.8 mph - N/A   Clear
10:55 AM 44.2 °F 40.3 °F 30.7 °F 59% 30.01 in 10.0 mi WSW 6.9 mph - N/A   Clear
11:15 AM 46.8 °F - 32.0 °F 57% 30.01 in 10.0 mi SW 9.2 mph - N/A   Clear
11:35 AM 46.8 °F - 31.5 °F 55% 30.01 in 10.0 mi WSW 6.9 mph - N/A   Clear
12:15 PM 49.5 °F - 32.5 °F 52% 29.99 in 10.0 mi WSW 5.8 mph - N/A   Scattered Clouds
12:35 PM 49.8 °F - 32.0 °F 50% 29.98 in 10.0 mi NNW 8.1 mph - N/A   Scattered Clouds
12:55 PM 50.7 °F - 32.7 °F 50% 29.97 in 10.0 mi WNW 8.1 mph - N/A   Scattered Clouds
1:15 PM 50.7 °F - 32.9 °F 51% 29.96 in 10.0 mi West 4.6 mph 16.1 mph N/A   Scattered Clouds
1:35 PM 51.8 °F - 32.7 °F 48% 29.95 in 10.0 mi NW 10.4 mph 16.1 mph N/A   Scattered Clouds
1:55 PM 52.5 °F - 32.9 °F 47% 29.94 in 10.0 mi SW 8.1 mph - N/A   Mostly Cloudy
2:15 PM 51.1 °F - 32.9 °F 50% 29.93 in 10.0 mi West 5.8 mph 9.2 mph N/A   Scattered Clouds
2:35 PM 50.4 °F - 32.7 °F 51% 29.93 in 10.0 mi WNW 8.1 mph - N/A   Scattered Clouds
2:55 PM 53.4 °F - 33.4 °F 47% 29.92 in 10.0 mi WNW 10.4 mph - N/A   Scattered Clouds
3:15 PM 52.7 °F - 33.3 °F 48% 29.92 in 10.0 mi NW 12.7 mph - N/A   Mostly Cloudy
3:35 PM 52.2 °F - 32.9 °F 48% 29.93 in 10.0 mi WNW 12.7 mph - N/A   Mostly Cloudy
3:55 PM 53.6 °F - 33.3 °F 46% 29.93 in 10.0 mi West 13.8 mph 17.3 mph N/A   Mostly Cloudy
4:15 PM 53.2 °F - 33.8 °F 48% 29.93 in 10.0 mi West 12.7 mph 20.7 mph N/A   Overcast
4:35 PM 52.0 °F - 32.7 °F 48% 29.93 in 10.0 mi NW 15.0 mph - N/A   Overcast
4:55 PM 51.4 °F - 33.3 °F 50% 29.94 in 10.0 mi West 8.1 mph - N/A   Mostly Cloudy
5:15 PM 50.0 °F - 32.9 °F 52% 29.94 in 10.0 mi WNW 12.7 mph 18.4 mph N/A   Scattered Clouds
5:35 PM 48.4 °F - 32.7 °F 55% 29.95 in 10.0 mi WNW 13.8 mph 20.7 mph N/A   Clear
5:55 PM 46.6 °F - 32.7 °F 59% 29.97 in 10.0 mi West 17.3 mph 23.0 mph N/A   Clear
6:15 PM 45.0 °F 39.7 °F 32.2 °F 61% 29.96 in 10.0 mi West 10.4 mph - N/A   Clear
6:35 PM 43.5 °F 37.1 °F 32.2 °F 64% 29.98 in 10.0 mi West 12.7 mph - N/A   Clear
6:55 PM 42.4 °F 37.0 °F 32.0 °F 67% 29.99 in 10.0 mi West 9.2 mph - N/A   Clear
7:15 PM 41.4 °F 37.6 °F 32.0 °F 69% 29.99 in 10.0 mi West 5.8 mph - N/A   Clear
7:35 PM 40.5 °F 36.5 °F 32.0 °F 72% 30.00 in 10.0 mi West 5.8 mph - N/A   Clear
7:55 PM 38.1 °F 34.6 °F 31.8 °F 78% 30.00 in 10.0 mi West 4.6 mph - N/A   Clear
8:15 PM 37.9 °F 34.4 °F 31.8 °F 79% 30.00 in 10.0 mi West 4.6 mph - N/A   Clear
8:35 PM 37.4 °F 34.9 °F 31.6 °F 80% 30.00 in 10.0 mi West 3.5 mph - N/A   Clear
8:55 PM 37.0 °F 33.3 °F 31.5 °F 80% 30.00 in 10.0 mi West 4.6 mph - N/A   Clear
9:15 PM 36.7 °F 34.1 °F 31.3 °F 81% 30.00 in 10.0 mi West 3.5 mph - N/A   Scattered Clouds
9:35 PM 36.9 °F - 31.1 °F 80% 30.00 in 10.0 mi Calm Calm - N/A   Scattered Clouds
9:55 PM 35.8 °F 31.9 °F 30.7 °F 82% 30.00 in 10.0 mi West 4.6 mph - N/A   Clear
10:15 PM 36.0 °F 32.1 °F 30.7 °F 81% 30.01 in 10.0 mi West 4.6 mph - N/A   Clear
10:35 PM 35.6 °F 32.8 °F 30.7 °F 82% 30.01 in 10.0 mi WSW 3.5 mph - N/A   Clear
10:55 PM 34.9 °F 32.0 °F 30.6 °F 84% 30.00 in 10.0 mi SW 3.5 mph - N/A   Clear
11:15 PM 34.0 °F 29.8 °F 30.2 °F 86% 30.00 in 10.0 mi SSW 4.6 mph - N/A   Clear
11:35 PM 33.1 °F 28.7 °F 30.6 °F 90% 29.99 in 10.0 mi SW 4.6 mph - N/A   Scattered Clouds
11:55 PM 34.3 °F 31.4 °F 31.8 °F 90% 29.99 in 10.0 mi SW 3.5 mph - N/A   Overcast